DW5479 Weather Reports


Display with metric or nautical units.
time (UTC)temp
F
wind
direction
speed
MPH
gust
MPH
rain 1hr
in
rain 24hr
in
rain mn
in
humidity
%
barometer
mb
20260906131518 78 148 0.0 2.0 0.00 0.00 0.00 87 1011.6
20260906130025 77 147 0.0 1.0 0.00 0.00 0.00 88 1011.5
20260906124547 76 162 0.0 0.0 0.00 0.00 0.00 88 1011.3
20260906123102 76 167 0.0 1.0 0.00 0.00 0.00 88 1011.0
20260906121515 76 150 0.0 1.0 0.00 0.00 0.00 87 1010.8
20260906120031 77 147 0.0 2.0 0.00 0.00 0.00 87 1010.7
20260906114607 77 155 0.0 3.0 0.00 0.00 0.00 87 1010.5
20260906113032 77 150 1.0 4.0 0.00 0.00 0.00 87 1010.4
20260906111550 77 148 1.0 4.0 0.00 0.00 0.00 87 1010.1
20260906110002 77 158 2.0 5.0 0.00 0.00 0.00 87 1010.3
20260906104518 76 150 1.0 3.0 0.00 0.00 0.00 88 1010.1
20260906103042 76 158 0.0 1.0 0.00 0.00 0.00 87 1010.1
20260906101554 76 136 0.0 2.0 0.00 0.00 0.00 87 1010.2
20260906100006 76 192 0.0 0.0 0.00 0.00 0.00 87 1009.8
20260906094530 76 170 0.0 0.0 0.00 0.00 0.00 87 1009.6
20260906093102 76 172 0.0 0.0 0.00 0.00 0.00 87 1009.6
20260906091527 75 168 0.0 0.0 0.00 0.00 0.00 86 1009.5
20260906090116 75 146 0.0 0.0 0.00 0.00 0.00 86 1009.4
20260906084511 76 169 0.0 0.0 0.00 0.00 0.00 85 1009.6
20260906083033 76 179 0.0 0.0 0.00 0.00 0.00 85 1009.6
20260906081547 77 163 0.0 0.0 0.00 0.00 0.00 84 1009.7
20260906080125 78 195 0.0 0.0 0.00 0.00 0.00 84 1010.0
20260906074518 78 152 0.0 1.0 0.00 0.00 0.00 83 1010.3
20260906073030 79 210 0.0 0.0 0.00 0.00 0.00 83 1010.3
20260906071548 79 136 0.0 4.0 0.00 0.00 0.00 82 1010.4
20260906070001 80 161 0.0 4.0 0.00 0.00 0.00 82 1010.7
20260906064533 80 164 1.0 6.0 0.00 0.00 0.00 81 1010.8
20260906063102 80 161 2.0 5.0 0.00 0.00 0.00 81 1011.0
20260906061520 80 158 0.0 4.0 0.00 0.00 0.00 79 1011.1
20260906060002 81 151 1.0 6.0 0.00 0.00 0.00 78 1011.2
20260906054521 81 145 3.0 5.0 0.00 0.00 0.00 77 1011.2
20260906053036 81 123 3.0 8.0 0.00 0.00 0.00 76 1011.2
20260906051602 82 142 2.0 7.0 0.00 0.00 0.00 75 1011.1
20260906050007 82 159 5.0 9.0 0.00 0.00 0.00 74 1011.3
20260906044526 82 150 2.0 8.0 0.00 0.00 0.00 72 1011.3
20260906043101 83 166 4.0 9.0 0.00 0.00 0.00 71 1011.2
20260906041524 83 140 3.0 8.0 0.00 0.00 0.00 69 1011.2
20260906040057 84 142 4.0 8.0 0.00 0.00 0.00 68 1011.1
20260906034539 84 161 3.0 10.0 0.00 0.00 0.00 66 1011.0
20260906033049 84 171 5.0 13.0 0.00 0.00 0.00 64 1010.6
20260906031516 85 152 4.0 12.0 0.00 0.00 0.00 63 1010.5
20260906030033 85 103 7.0 16.0 0.00 0.00 0.00 63 1010.2
20260906024526 86 160 5.0 13.0 0.00 0.00 0.00 61 1009.9
20260906023045 86 146 6.0 13.0 0.00 0.00 0.00 60 1009.5
20260906021515 87 149 8.0 17.0 0.00 0.00 0.00 59 1009.1
20260906020040 88 138 7.0 16.0 0.00 0.00 0.00 56 1008.8
20260906014507 89 162 8.0 15.0 0.00 0.00 0.00 54 1008.6
20260906013051 90 144 6.0 19.0 0.00 0.00 0.00 53 1008.4
20260906011553 91 154 4.0 9.0 0.00 0.00 0.00 47 1008.1
20260906010018 92 140 4.0 8.0 0.00 0.00 0.00 46 1007.9
20260906004531 92 154 4.0 12.0 0.00 0.00 0.00 45 1007.9
20260906003049 93 142 5.0 12.0 0.00 0.00 0.00 44 1007.8
20260906001503 95 131 5.0 10.0 0.00 0.00 0.00 33 1007.8
20260906000022 96 136 4.0 7.0 0.00 0.00 0.00 34 1007.8
20260905234539 96 138 4.0 8.0 0.00 0.00 0.00 36 1007.6
20260905233059 97 156 4.0 10.0 0.00 0.00 0.00 37 1007.7
20260905231530 98 139 5.0 10.0 0.00 0.00 0.00 36 1007.6
20260905230046 98 161 2.0 8.0 0.00 0.00 0.00 35 1007.6
20260905224621 98 127 2.0 8.0 0.00 0.00 0.00 35 1007.7
20260905223019 98 141 2.0 6.0 0.00 0.00 0.00 35 1007.7
20260905221535 98 143 2.0 8.0 0.00 0.00 0.00 36 1007.8
20260905214509 98 142 4.0 8.0 0.00 0.00 0.00 35 1007.8
20260905213022 97 134 4.0 9.0 0.00 0.00 0.00 35 1008.1
20260905211538 95 144 2.0 7.0 0.00 0.00 0.00 39 1008.2
20260905210106 95 142 1.0 7.0 0.00 0.00 0.00 42 1008.3
20260905204555 96 150 1.0 9.0 0.00 0.00 0.00 41 1008.5
20260905203017 96 150 4.0 8.0 0.00 0.00 0.00 41 1008.8
20260905201529 99 143 4.0 9.0 0.00 0.00 0.00 39 1009.2
20260905200048 98 120 2.0 9.0 0.00 0.00 0.00 39 1009.5
20260905194501 98 141 1.0 6.0 0.00 0.00 0.00 36 1009.7
20260905193022 97 143 4.0 9.0 0.00 0.00 0.00 38 1009.9
20260905191541 97 127 4.0 11.0 0.00 0.00 0.00 39 1010.2
20260905190055 97 200 3.0 8.0 0.00 0.00 0.00 39 1010.5
20260905184512 95 133 3.0 12.0 0.00 0.00 0.00 43 1010.8
20260905183022 94 163 2.0 7.0 0.00 0.00 0.00 46 1011.1
20260905181551 93 162 3.0 10.0 0.00 0.00 0.00 47 1011.3
20260905180020 94 140 3.0 9.0 0.00 0.00 0.00 48 1011.5
20260905174537 94 160 1.0 9.0 0.00 0.00 0.00 49 1011.7
20260905173056 93 183 1.0 9.0 0.00 0.00 0.00 52 1012.0
20260905171513 92 145 5.0 8.0 0.00 0.00 0.00 53 1012.2
20260905170027 91 135 4.0 8.0 0.00 0.00 0.00 57 1012.4
20260905164546 89 171 4.0 10.0 0.00 0.00 0.00 59 1012.5
20260905163057 89 163 5.0 10.0 0.00 0.00 0.00 61 1012.6
20260905161513 90 148 2.0 9.0 0.00 0.00 0.00 66 1012.6
20260905160023 87 141 4.0 7.0 0.00 0.00 0.00 69 1012.6
20260905154617 87 158 3.0 6.0 0.00 0.00 0.00 70 1012.7
20260905153022 85 160 4.0 8.0 0.00 0.00 0.00 75 1012.6
20260905151533 83 170 3.0 8.0 0.00 0.00 0.00 79 1012.5
20260905150107 83 145 3.0 8.0 0.00 0.00 0.00 79 1012.6
20260905144518 83 139 3.0 7.0 0.00 0.00 0.00 79 1012.5
20260905143038 84 158 4.0 8.0 0.00 0.00 0.00 78 1012.4
20260905141546 83 153 4.0 8.0 0.00 0.00 0.00 81 1012.4
20260905140105 82 150 2.0 5.0 0.00 0.00 0.00 84 1012.3
20260905134517 80 157 1.0 4.0 0.00 0.00 0.00 88 1012.0
20260905133050 78 154 0.0 3.0 0.00 0.00 0.00 89 1011.9